Regional Weather Roundup
Issued by NWS New Orleans/Baton Rouge, LA

Home | Current Version | Previous Version | Graphics & Text | Print | Product List | Glossary On
Versions: 1 2 3 4 5 6 7 8 9 10 11 12 13 14 15 16 17 18 19 20 21 22 23 24 25 26 27 28 29 30 31 32 33 34 35 36 37 38 39 40 41 42 43 44 45 46 47 48 49 50
390
ASUS44 KLIX 040705
RWRLIX
NEW ORLEANS REGIONAL WEATHER ROUNDUP
NATIONAL WEATHER SERVICE NEW ORLEANS LA
100 AM CST WED MAR 04 2015

NOTE: "FAIR" INDICATES FEW OR NO CLOUDS BELOW 12,000 FEET WITH NO
      SIGNIFICANT WEATHER AND/OR OBSTRUCTIONS TO VISIBILITY.
      SKY/WX - SKY CONDITION AND SIGNIFICANT WEATHER.
      TMP - AIR TEMPERATURE.     DP    - DEWPOINT TEMPERATURE.
      RH  - RELATIVE HUMIDITY.   PRES  - PRESSURE.
      HI  - HEAT INDEX.          WCI   - WIND CHILL INDEX.

*  THESE STATIONS ARE NOT NWS OR FAA STATIONS AND ARE NOT UNDER
   NWS QUALITY CONTROL.

LAZ038-040-048-061>063-065>067-069-040800-
SOUTHEAST LOUISIANA

CITY           SKY/WX    TMP DP  RH WIND       PRES   REMARKS
N.O. AUDUBON   NOT AVBL
N.O. INTL ARPT MOCLDY    69  66  90 SE7       29.99F
N.O. LAKEFRONT MOCLDY    69  65  86 SE7       30.00F
SLIDELL        CLOUDY    69  67  93 SE7       30.00F
BATON ROUGE    CLOUDY    69  68  96 SE3       29.97F
BOOTHVILLE     FOG       64  64 100 E5        30.00F VSB 1/4
BELLE CHASSE   CLEAR     68  65  90 SE7       29.99F
BOGALUSA*        N/A     70  66  87 S6        30.01F
GALLIANO*      PTSUNNY   68  66  92 CALM      29.99F
NEW ROADS*     CLOUDY    68  67  98 CALM      29.97S FOG
GONZALES*      CLOUDY    68  68 100 CALM      29.97F
HAMMOND*       CLOUDY    66  64  94 CALM      30.00F FOG
HOUMA*         MOCLDY    69  68  98 SE7       29.98F FOG
PORT FOURCHON* CLOUDY    70  68  94 SE5       30.03S

$$

MSZ070-080>082-040800-
SOUTHERN MISSISSIPPI

CITY           SKY/WX    TMP DP  RH WIND       PRES   REMARKS
MCCOMB         CLOUDY    67  66  97 S6        29.99S
GULFPORT       CLOUDY    64  63  96 SE10      30.01F FOG
BILOXI         CLOUDY    66  66 100 SE9       30.02F FOG
PASCAGOULA     CLOUDY    66  65  96 SE9       30.03F FOG

$$

COASTAL OBSERVATIONS
LAKE AND NEARSHORE STATIONS

STATION/POSITION TIME  TEMP    WIND        PRES    WAVE
                       AIR SEA DIR/SP/G            HT/PER
                 (UTC) (F)     (DEG/KT/KT) (MB)    (FT/S)
PASCAGOULA       0600   64     120/  3/  7 1016.5
WAVELAND YACHT   0600   63 59  170/  7/ 11 1016.2
GRAND ISLE       0600   68 64  110/  2/  4 1016.6
SOUTHWEST PASS   0600   63 46  150/  6/  9 1016.4
NEW CANAL        0600   68     110/  1/  4 1016.1
SHELL BEACH      0600   66 62  130/  9/ 11 1016.1

OFFSHORE STATIONS

STATION/POSITION TIME  TEMP    WIND        PRES    WAVE
                       AIR SEA DIR/SP/G            HT/PER
                 (UTC) (F)     (DEG/KT/KT) (MB)    (FT/S)
64 S DAUPHIN ISL 0554   71 71  150/ 17/ 19 1017.0    4/ 7

$$




USA.gov is the U.S. government's official web portal to all federal, state and local government web resources and services.